Location: Hebron
(33.0265°N, 96.8636°W)
Time: 22:34:38
(UTC+00:00)

Okean 1 - Pass Details

Date: 07 July 2022
Orbit: 532 x 553 km, 82.5° (Epoch: 07 August)

Event Time Altitude Azimuth Distance (km) Brightness Sun altitude
Rises 08:32:29 0° 10° (N) 2,682 7.9 -27.5°
Reaches altitude 10° 08:35:03 10° 27° (NNE) 1,786 6.9 -27.2°
Maximum altitude 08:38:03 21° 77° (ENE) 1,237 5.5 -26.8°
Enters shadow 08:39:10 18° 101° (ESE) 1,326 5.4 -26.7°
